| time (UTC) | temp C | wind direction | speed KPH | gust KPH | rain 1hr cm | rain 24hr cm | rain mn cm | humidity % | barometer mb |
| 20260906191003 | 27 | 202 | 17.7 | 17.7 | 0.00 | 0.00 | 0.00 | 39 | 1021.4 |
| 20260906190504 | 27 | 260 | 12.9 | 20.9 | 0.00 | 0.00 | 0.00 | 39 | 1021.5 |
| 20260906190004 | 26 | 282 | 11.3 | 16.1 | 0.00 | 0.00 | 0.00 | 42 | 1021.4 |
| 20260906185503 | 26 | 299 | 11.3 | 24.1 | 0.00 | 0.00 | 0.00 | 42 | 1021.3 |
| 20260906185003 | 26 | 287 | 4.8 | 6.4 | 0.00 | 0.00 | 0.00 | 42 | 1021.5 |
| 20260906184504 | 27 | 302 | 11.3 | 14.5 | 0.00 | 0.00 | 0.00 | 40 | 1021.7 |
| 20260906184004 | 26 | 297 | 9.7 | 17.7 | 0.00 | 0.00 | 0.00 | 42 | 1021.8 |
| 20260906183504 | 26 | 249 | 6.4 | 9.7 | 0.00 | 0.00 | 0.00 | 41 | 1021.8 |
| 20260906183004 | 26 | 160 | 4.8 | 8.0 | 0.00 | 0.00 | 0.00 | 40 | 1021.9 |
| 20260906182503 | 27 | 95 | 6.4 | 9.7 | 0.00 | 0.00 | 0.00 | 40 | 1022.1 |
| 20260906182004 | 26 | 45 | 4.8 | 8.0 | 0.00 | 0.00 | 0.00 | 40 | 1021.8 |
| 20260906181504 | 26 | 320 | 3.2 | 9.7 | 0.00 | 0.00 | 0.00 | 41 | 1022.0 |
| 20260906181003 | 27 | 28 | 9.7 | 9.7 | 0.00 | 0.00 | 0.00 | 40 | 1022.0 |
| 20260906180504 | 27 | 101 | 4.8 | 8.0 | 0.00 | 0.00 | 0.00 | 39 | 1021.9 |
| 20260906180004 | 26 | 51 | 3.2 | 9.7 | 0.00 | 0.00 | 0.00 | 40 | 1022.1 |
| 20260906175504 | 25 | 346 | 4.8 | 9.7 | 0.00 | 0.00 | 0.00 | 42 | 1022.1 |
| 20260906175004 | 26 | 43 | 8.0 | 12.9 | 0.00 | 0.00 | 0.00 | 40 | 1022.2 |
| 20260906173005 | 26 | 113 | 6.4 | 8.0 | 0.00 | 0.00 | 0.00 | 42 | 1022.3 |
| 20260906172504 | 26 | 240 | 4.8 | 6.4 | 0.00 | 0.00 | 0.00 | 42 | 1022.3 |
| 20260906172004 | 25 | 125 | 9.7 | 9.7 | 0.00 | 0.00 | 0.00 | 43 | 1022.3 |
| 20260906171503 | 25 | 335 | 6.4 | 16.1 | 0.00 | 0.00 | 0.00 | 43 | 1022.3 |
| 20260906171003 | 25 | 332 | 6.4 | 11.3 | 0.00 | 0.00 | 0.00 | 43 | 1022.4 |
| 20260906170504 | 24 | 336 | 4.8 | 12.9 | 0.00 | 0.00 | 0.00 | 44 | 1022.3 |
| 20260906170004 | 25 | 67 | 6.4 | 9.7 | 0.00 | 0.00 | 0.00 | 42 | 1022.6 |
| 20260906165504 | 25 | 22 | 8.0 | 8.0 | 0.00 | 0.00 | 0.00 | 42 | 1022.5 |
| 20260906165004 | 24 | 33 | 4.8 | 8.0 | 0.00 | 0.00 | 0.00 | 44 | 1022.3 |
| 20260906164504 | 23 | 342 | 8.0 | 11.3 | 0.00 | 0.00 | 0.00 | 44 | 1022.4 |
| 20260906162504 | 25 | 14 | 6.4 | 6.4 | 0.00 | 0.00 | 0.00 | 43 | 1022.3 |
| 20260906162004 | 25 | 79 | 8.0 | 9.7 | 0.00 | 0.00 | 0.00 | 43 | 1022.4 |
| 20260906161504 | 23 | 336 | 3.2 | 12.9 | 0.00 | 0.00 | 0.00 | 45 | 1022.3 |
| 20260906161003 | 24 | 17 | 8.0 | 8.0 | 0.00 | 0.00 | 0.00 | 44 | 1022.3 |
| 20260906160503 | 23 | 287 | 4.8 | 12.9 | 0.00 | 0.00 | 0.00 | 45 | 1022.3 |
| 20260906160004 | 22 | 8 | 9.7 | 16.1 | 0.00 | 0.00 | 0.00 | 47 | 1022.3 |
| 20260906155503 | 23 | 342 | 4.8 | 8.0 | 0.00 | 0.00 | 0.00 | 45 | 1022.4 |
| 20260906155003 | 23 | 15 | 8.0 | 8.0 | 0.00 | 0.00 | 0.00 | 45 | 1022.5 |
| 20260906154503 | 23 | 18 | 4.8 | 9.7 | 0.00 | 0.00 | 0.00 | 45 | 1022.5 |
| 20260906154003 | 23 | 14 | 3.2 | 9.7 | 0.00 | 0.00 | 0.00 | 45 | 1022.5 |
| 20260906153503 | 23 | 329 | 4.8 | 6.4 | 0.00 | 0.00 | 0.00 | 46 | 1022.4 |
| 20260906153004 | 22 | 302 | 16.1 | 16.1 | 0.00 | 0.00 | 0.00 | 46 | 1022.5 |
| 20260906152503 | 22 | 349 | 8.0 | 12.9 | 0.00 | 0.00 | 0.00 | 48 | 1022.6 |
| 20260906152003 | 22 | 20 | 3.2 | 11.3 | 0.00 | 0.00 | 0.00 | 48 | 1022.4 |
| 20260906151504 | 22 | 357 | 9.7 | 11.3 | 0.00 | 0.00 | 0.00 | 47 | 1022.5 |
| 20260906151003 | 23 | 352 | 3.2 | 12.9 | 0.00 | 0.00 | 0.00 | 46 | 1022.4 |
| 20260906150503 | 23 | 18 | 6.4 | 9.7 | 0.00 | 0.00 | 0.00 | 46 | 1022.5 |
| 20260906150003 | 22 | 26 | 6.4 | 8.0 | 0.00 | 0.00 | 0.00 | 48 | 1022.4 |
| 20260906145504 | 22 | 9 | 3.2 | 9.7 | 0.00 | 0.00 | 0.00 | 47 | 1022.3 |
| 20260906145004 | 22 | 59 | 3.2 | 9.7 | 0.00 | 0.00 | 0.00 | 47 | 1022.3 |
| 20260906144504 | 22 | 65 | 6.4 | 11.3 | 0.00 | 0.00 | 0.00 | 48 | 1022.3 |
| 20260906142503 | 21 | 34 | 3.2 | 4.8 | 0.00 | 0.00 | 0.00 | 50 | 1022.2 |
| 20260906142003 | 21 | 80 | 3.2 | 4.8 | 0.00 | 0.00 | 0.00 | 50 | 1022.3 |
| 20260906140004 | 19 | 193 | 0.0 | 3.2 | 0.00 | 0.00 | 0.00 | 55 | 1021.9 |
| 20260906135503 | 19 | 265 | 3.2 | 3.2 | 0.00 | 0.00 | 0.00 | 57 | 1022.3 |
| 20260906135004 | 19 | 211 | 0.0 | 0.0 | 0.00 | 0.00 | 0.00 | 55 | 1022.1 |
| 20260906134504 | 18 | 345 | 0.0 | 3.2 | 0.00 | 0.00 | 0.00 | 55 | 1022.0 |
| 20260906134003 | 18 | 250 | 3.2 | 4.8 | 0.00 | 0.00 | 0.00 | 56 | 1021.8 |
| 20260906133503 | 18 | 266 | 3.2 | 4.8 | 0.00 | 0.00 | 0.00 | 55 | 1021.7 |
| 20260906133004 | 18 | 337 | 0.0 | 3.2 | 0.00 | 0.00 | 0.00 | 54 | 1021.8 |
| 20260906132504 | 18 | 281 | 4.8 | 4.8 | 0.00 | 0.00 | 0.00 | 54 | 1021.7 |
| 20260906132004 | 18 | 284 | 3.2 | 4.8 | 0.00 | 0.00 | 0.00 | 55 | 1021.7 |
| 20260906131503 | 18 | 267 | 3.2 | 4.8 | 0.00 | 0.00 | 0.00 | 55 | 1021.7 |
| 20260906131003 | 18 | 253 | 4.8 | 4.8 | 0.00 | 0.00 | 0.00 | 55 | 1021.4 |
| 20260906130503 | 18 | 247 | 4.8 | 4.8 | 0.00 | 0.00 | 0.00 | 55 | 1021.5 |
| 20260906130004 | 18 | 255 | 3.2 | 4.8 | 0.00 | 0.00 | 0.00 | 55 | 1021.4 |
| 20260906125504 | 18 | 254 | 4.8 | 4.8 | 0.00 | 0.00 | 0.00 | 55 | 1021.5 |
| 20260906125004 | 18 | 269 | 3.2 | 6.4 | 0.00 | 0.00 | 0.00 | 55 | 1021.5 |
| 20260906124504 | 18 | 267 | 3.2 | 4.8 | 0.00 | 0.00 | 0.00 | 55 | 1021.7 |
| 20260906124004 | 18 | 281 | 3.2 | 4.8 | 0.00 | 0.00 | 0.00 | 56 | 1021.4 |
| 20260906123504 | 18 | 254 | 3.2 | 4.8 | 0.00 | 0.00 | 0.00 | 55 | 1021.5 |
| 20260906123003 | 18 | 194 | 0.0 | 3.2 | 0.00 | 0.00 | 0.00 | 55 | 1021.5 |
| 20260906122503 | 19 | 305 | 3.2 | 4.8 | 0.00 | 0.00 | 0.00 | 54 | 1021.4 |
| 20260906122004 | 19 | 264 | 6.4 | 8.0 | 0.00 | 0.00 | 0.00 | 55 | 1021.4 |
| 20260906121503 | 18 | 306 | 0.0 | 3.2 | 0.00 | 0.00 | 0.00 | 55 | 1021.5 |
| 20260906121003 | 18 | 278 | 3.2 | 3.2 | 0.00 | 0.00 | 0.00 | 55 | 1021.5 |
| 20260906120504 | 18 | 251 | 3.2 | 4.8 | 0.00 | 0.00 | 0.00 | 55 | 1021.5 |
| 20260906120004 | 18 | 260 | 3.2 | 4.8 | 0.00 | 0.00 | 0.00 | 55 | 1021.3 |
| 20260906115503 | 18 | 274 | 4.8 | 4.8 | 0.00 | 0.00 | 0.00 | 55 | 1021.6 |
| 20260906115004 | 18 | 188 | 0.0 | 3.2 | 0.00 | 0.00 | 0.00 | 55 | 1021.6 |
| 20260906114504 | 18 | 262 | 3.2 | 4.8 | 0.00 | 0.00 | 0.00 | 55 | 1021.6 |
| 20260906114003 | 18 | 184 | 0.0 | 3.2 | 0.00 | 0.00 | 0.00 | 55 | 1021.4 |
| 20260906113504 | 18 | 233 | 4.8 | 4.8 | 0.00 | 0.00 | 0.00 | 55 | 1021.5 |
| 20260906111504 | 18 | 261 | 8.0 | 9.7 | 0.00 | 0.00 | 0.00 | 52 | 1021.3 |
| 20260906111004 | 18 | 271 | 8.0 | 8.0 | 0.00 | 0.00 | 0.00 | 52 | 1021.3 |
| 20260906110504 | 18 | 265 | 6.4 | 8.0 | 0.00 | 0.00 | 0.00 | 52 | 1021.3 |
| 20260906110004 | 18 | 241 | 6.4 | 8.0 | 0.00 | 0.00 | 0.00 | 53 | 1021.5 |
| 20260906105504 | 18 | 261 | 6.4 | 6.4 | 0.00 | 0.00 | 0.00 | 54 | 1021.3 |
| 20260906105004 | 18 | 274 | 6.4 | 8.0 | 0.00 | 0.00 | 0.00 | 56 | 1021.3 |
| 20260906104503 | 17 | 248 | 4.8 | 6.4 | 0.00 | 0.00 | 0.00 | 58 | 1021.3 |
| 20260906104003 | 18 | 258 | 4.8 | 6.4 | 0.00 | 0.00 | 0.00 | 58 | 1021.3 |
| 20260906103504 | 18 | 245 | 4.8 | 9.7 | 0.00 | 0.00 | 0.00 | 57 | 1021.1 |
| 20260906103003 | 18 | 259 | 3.2 | 6.4 | 0.00 | 0.00 | 0.00 | 55 | 1021.4 |
| 20260906102504 | 18 | 259 | 6.4 | 8.0 | 0.00 | 0.00 | 0.00 | 55 | 1021.5 |
| 20260906102003 | 18 | 212 | 0.0 | 3.2 | 0.00 | 0.00 | 0.00 | 55 | 1021.6 |
| 20260906101503 | 18 | 250 | 8.0 | 8.0 | 0.00 | 0.00 | 0.00 | 55 | 1021.5 |
| 20260906101004 | 18 | 256 | 4.8 | 8.0 | 0.00 | 0.00 | 0.00 | 56 | 1021.4 |
| 20260906100504 | 18 | 265 | 6.4 | 8.0 | 0.00 | 0.00 | 0.00 | 56 | 1021.4 |
| 20260906100004 | 18 | 260 | 4.8 | 4.8 | 0.00 | 0.00 | 0.00 | 57 | 1021.4 |
| 20260906095504 | 18 | 245 | 6.4 | 6.4 | 0.00 | 0.00 | 0.00 | 57 | 1021.4 |
| 20260906095004 | 18 | 264 | 8.0 | 8.0 | 0.00 | 0.00 | 0.00 | 57 | 1021.4 |
| 20260906094504 | 18 | 211 | 4.8 | 8.0 | 0.00 | 0.00 | 0.00 | 57 | 1021.5 |
| 20260906094003 | 18 | 261 | 4.8 | 6.4 | 0.00 | 0.00 | 0.00 | 56 | 1021.5 |
| 20260906093503 | 18 | 272 | 3.2 | 4.8 | 0.00 | 0.00 | 0.00 | 56 | 1021.3 |
| 20260906093004 | 18 | 232 | 4.8 | 4.8 | 0.00 | 0.00 | 0.00 | 55 | 1021.4 |
| 20260906092503 | 18 | 221 | 0.0 | 3.2 | 0.00 | 0.00 | 0.00 | 55 | 1021.5 |
| 20260906092003 | 18 | 267 | 6.4 | 8.0 | 0.00 | 0.00 | 0.00 | 54 | 1021.6 |
| 20260906091504 | 19 | 259 | 6.4 | 8.0 | 0.00 | 0.00 | 0.00 | 54 | 1021.3 |
| 20260906082504 | 18 | 264 | 6.4 | 8.0 | 0.00 | 0.00 | 0.00 | 58 | 1021.6 |
| 20260906082004 | 18 | 253 | 6.4 | 8.0 | 0.00 | 0.00 | 0.00 | 57 | 1021.6 |
| 20260906081504 | 18 | 262 | 8.0 | 9.7 | 0.00 | 0.00 | 0.00 | 57 | 1021.7 |
| 20260906081004 | 18 | 242 | 8.0 | 8.0 | 0.00 | 0.00 | 0.00 | 56 | 1021.6 |
| 20260906080503 | 19 | 265 | 8.0 | 9.7 | 0.00 | 0.00 | 0.00 | 56 | 1021.7 |
| 20260906080004 | 20 | 262 | 6.4 | 8.0 | 0.00 | 0.00 | 0.00 | 54 | 1021.8 |
| 20260906074004 | 19 | 261 | 6.4 | 8.0 | 0.00 | 0.00 | 0.00 | 55 | 1021.9 |
| 20260906073504 | 19 | 255 | 6.4 | 6.4 | 0.00 | 0.00 | 0.00 | 56 | 1022.0 |
| 20260906073004 | 18 | 256 | 6.4 | 6.4 | 0.00 | 0.00 | 0.00 | 57 | 1021.9 |
| 20260906065504 | 18 | 291 | 4.8 | 4.8 | 0.00 | 0.00 | 0.00 | 58 | 1022.3 |
| 20260906065004 | 18 | 245 | 4.8 | 6.4 | 0.00 | 0.00 | 0.00 | 57 | 1022.2 |
| 20260906064504 | 18 | 279 | 3.2 | 3.2 | 0.00 | 0.00 | 0.00 | 57 | 1022.2 |
| 20260906064003 | 18 | 317 | 0.0 | 3.2 | 0.00 | 0.00 | 0.00 | 58 | 1022.1 |
| 20260906063503 | 18 | 268 | 6.4 | 6.4 | 0.00 | 0.00 | 0.00 | 58 | 1022.1 |
| 20260906063004 | 19 | 261 | 4.8 | 6.4 | 0.00 | 0.00 | 0.00 | 56 | 1022.2 |
| 20260906062504 | 19 | 246 | 0.0 | 0.0 | 0.00 | 0.00 | 0.00 | 55 | 1022.2 |
| 20260906062004 | 19 | 267 | 3.2 | 4.8 | 0.00 | 0.00 | 0.00 | 55 | 1022.2 |
| 20260906061503 | 19 | 271 | 6.4 | 6.4 | 0.00 | 0.00 | 0.00 | 55 | 1022.1 |
| 20260906061003 | 19 | 269 | 4.8 | 4.8 | 0.00 | 0.00 | 0.00 | 56 | 1022.0 |
| 20260906060503 | 19 | 308 | 4.8 | 6.4 | 0.00 | 0.00 | 0.00 | 56 | 1022.3 |
| 20260906060004 | 18 | 268 | 6.4 | 8.0 | 0.00 | 0.00 | 0.00 | 58 | 1022.3 |
| 20260906055503 | 18 | 188 | 0.0 | 3.2 | 0.00 | 0.00 | 0.00 | 58 | 1022.1 |
| 20260906053504 | 20 | 186 | 0.0 | 0.0 | 0.00 | 0.00 | 0.00 | 56 | 1022.3 |
| 20260906053003 | 20 | 103 | 3.2 | 3.2 | 0.00 | 0.00 | 0.00 | 55 | 1022.3 |
| 20260906052503 | 20 | 81 | 0.0 | 4.8 | 0.00 | 0.00 | 0.00 | 56 | 1022.3 |
| 20260906052003 | 20 | 121 | 4.8 | 6.4 | 0.00 | 0.00 | 0.00 | 56 | 1022.4 |
| 20260906051504 | 20 | 128 | 3.2 | 3.2 | 0.00 | 0.00 | 0.00 | 55 | 1022.3 |
| 20260906051004 | 20 | 205 | 0.0 | 3.2 | 0.00 | 0.00 | 0.00 | 54 | 1022.4 |
| 20260906050504 | 20 | 199 | 3.2 | 6.4 | 0.00 | 0.00 | 0.00 | 53 | 1022.2 |
| 20260906050004 | 20 | 215 | 4.8 | 8.0 | 0.00 | 0.00 | 0.00 | 53 | 1022.2 |
| 20260906045503 | 20 | 241 | 6.4 | 8.0 | 0.00 | 0.00 | 0.00 | 53 | 1022.3 |
| 20260906045003 | 20 | 223 | 4.8 | 6.4 | 0.00 | 0.00 | 0.00 | 52 | 1022.3 |
| 20260906044504 | 20 | 266 | 4.8 | 6.4 | 0.00 | 0.00 | 0.00 | 53 | 1022.3 |
| 20260906044004 | 20 | 265 | 4.8 | 6.4 | 0.00 | 0.00 | 0.00 | 53 | 1022.2 |
| 20260906043504 | 20 | 264 | 6.4 | 6.4 | 0.00 | 0.00 | 0.00 | 54 | 1022.2 |
| 20260906043004 | 20 | 252 | 6.4 | 8.0 | 0.00 | 0.00 | 0.00 | 54 | 1022.2 |
| 20260906042503 | 20 | 267 | 8.0 | 9.7 | 0.00 | 0.00 | 0.00 | 55 | 1022.3 |
| 20260906042003 | 20 | 235 | 6.4 | 9.7 | 0.00 | 0.00 | 0.00 | 55 | 1022.2 |
| 20260906041504 | 20 | 260 | 4.8 | 4.8 | 0.00 | 0.00 | 0.00 | 55 | 1022.3 |
| 20260906041003 | 21 | 252 | 3.2 | 4.8 | 0.00 | 0.00 | 0.00 | 53 | 1022.2 |
| 20260906040503 | 21 | 263 | 4.8 | 4.8 | 0.00 | 0.00 | 0.00 | 53 | 1022.1 |
| 20260906040004 | 21 | 283 | 3.2 | 4.8 | 0.00 | 0.00 | 0.00 | 53 | 1022.2 |
| 20260906034004 | 20 | 272 | 8.0 | 8.0 | 0.00 | 0.00 | 0.00 | 54 | 1021.9 |
| 20260906033504 | 21 | 260 | 4.8 | 6.4 | 0.00 | 0.00 | 0.00 | 53 | 1022.1 |
| 20260906033004 | 21 | 227 | 3.2 | 4.8 | 0.00 | 0.00 | 0.00 | 52 | 1021.9 |
| 20260906032503 | 21 | 256 | 3.2 | 4.8 | 0.00 | 0.00 | 0.00 | 51 | 1021.9 |
| 20260906032003 | 21 | 263 | 6.4 | 6.4 | 0.00 | 0.00 | 0.00 | 52 | 1022.0 |
| 20260906031503 | 21 | 269 | 4.8 | 6.4 | 0.00 | 0.00 | 0.00 | 52 | 1021.9 |
| 20260906025503 | 21 | 269 | 3.2 | 3.2 | 0.00 | 0.00 | 0.00 | 52 | 1021.8 |
| 20260906025003 | 21 | 246 | 0.0 | 0.0 | 0.00 | 0.00 | 0.00 | 53 | 1021.7 |
| 20260906024504 | 21 | 309 | 0.0 | 0.0 | 0.00 | 0.00 | 0.00 | 52 | 1021.7 |
| 20260906024004 | 21 | 0 | 0.0 | 0.0 | 0.00 | 0.00 | 0.00 | 52 | 1021.7 |
| 20260906023504 | 21 | 309 | 0.0 | 0.0 | 0.00 | 0.00 | 0.00 | 52 | 1021.6 |
| 20260906023004 | 21 | 147 | 0.0 | 3.2 | 0.00 | 0.00 | 0.00 | 51 | 1021.7 |
| 20260906022503 | 22 | 207 | 6.4 | 8.0 | 0.00 | 0.00 | 0.00 | 51 | 1021.7 |
| 20260906022003 | 22 | 197 | 6.4 | 9.7 | 0.00 | 0.00 | 0.00 | 50 | 1021.8 |
| 20260906021504 | 22 | 199 | 4.8 | 4.8 | 0.00 | 0.00 | 0.00 | 50 | 1021.7 |
| 20260906015503 | 22 | 260 | 4.8 | 8.0 | 0.00 | 0.00 | 0.00 | 49 | 1021.7 |
| 20260906015004 | 22 | 199 | 9.7 | 12.9 | 0.00 | 0.00 | 0.00 | 49 | 1021.9 |
| 20260906014503 | 22 | 268 | 6.4 | 8.0 | 0.00 | 0.00 | 0.00 | 49 | 1021.8 |
| 20260906014003 | 22 | 259 | 8.0 | 8.0 | 0.00 | 0.00 | 0.00 | 49 | 1021.8 |
| 20260906013503 | 23 | 197 | 4.8 | 6.4 | 0.00 | 0.00 | 0.00 | 49 | 1021.8 |
| 20260906013003 | 23 | 262 | 8.0 | 14.5 | 0.00 | 0.00 | 0.00 | 48 | 1021.9 |
| 20260906012503 | 23 | 256 | 6.4 | 11.3 | 0.00 | 0.00 | 0.00 | 48 | 1021.8 |
| 20260906012003 | 23 | 248 | 8.0 | 8.0 | 0.00 | 0.00 | 0.00 | 48 | 1021.9 |
| 20260906011504 | 23 | 225 | 8.0 | 16.1 | 0.00 | 0.00 | 0.00 | 48 | 1021.7 |
| 20260906005503 | 23 | 248 | 4.8 | 6.4 | 0.00 | 0.00 | 0.00 | 47 | 1021.9 |
| 20260906005003 | 23 | 260 | 6.4 | 12.9 | 0.00 | 0.00 | 0.00 | 47 | 1022.0 |
| 20260906004504 | 24 | 223 | 11.3 | 16.1 | 0.00 | 0.00 | 0.00 | 47 | 1022.2 |
| 20260906004003 | 24 | 190 | 8.0 | 19.3 | 0.00 | 0.00 | 0.00 | 47 | 1021.9 |
| 20260906003503 | 24 | 238 | 11.3 | 22.5 | 0.00 | 0.00 | 0.00 | 47 | 1022.0 |
| 20260906003004 | 23 | 158 | 9.7 | 16.1 | 0.00 | 0.00 | 0.00 | 49 | 1022.1 |
| 20260906002503 | 23 | 180 | 9.7 | 14.5 | 0.00 | 0.00 | 0.00 | 49 | 1022.1 |
| 20260906002003 | 23 | 257 | 16.1 | 17.7 | 0.00 | 0.00 | 0.00 | 49 | 1022.0 |
| 20260906001504 | 23 | 219 | 4.8 | 22.5 | 0.00 | 0.00 | 0.00 | 49 | 1022.0 |
| 20260906001004 | 24 | 201 | 12.9 | 24.1 | 0.00 | 0.00 | 0.00 | 48 | 1022.0 |
| 20260906000504 | 25 | 197 | 11.3 | 24.1 | 0.00 | 0.00 | 0.00 | 47 | 1021.9 |
| 20260906000006 | 25 | 206 | 12.9 | 29.0 | 0.00 | 0.00 | 0.00 | 47 | 1022.0 |
| 20260905235503 | 25 | 202 | 24.1 | 29.0 | 0.00 | 0.00 | 0.00 | 46 | 1022.1 |
| 20260905235003 | 25 | 218 | 11.3 | 24.1 | 0.00 | 0.00 | 0.00 | 47 | 1022.0 |
| 20260905234504 | 23 | 226 | 17.7 | 32.2 | 0.00 | 0.00 | 0.00 | 49 | 1021.9 |
| 20260905234004 | 23 | 218 | 11.3 | 17.7 | 0.00 | 0.00 | 0.00 | 50 | 1021.9 |
| 20260905233504 | 24 | 207 | 24.1 | 32.2 | 0.00 | 0.00 | 0.00 | 49 | 1021.9 |
| 20260905233004 | 24 | 206 | 11.3 | 24.1 | 0.00 | 0.00 | 0.00 | 48 | 1021.9 |
| 20260905232503 | 24 | 215 | 12.9 | 17.7 | 0.00 | 0.00 | 0.00 | 47 | 1022.2 |
| 20260905232003 | 24 | 240 | 12.9 | 20.9 | 0.00 | 0.00 | 0.00 | 47 | 1022.1 |
| 20260905231504 | 24 | 227 | 16.1 | 24.1 | 0.00 | 0.00 | 0.00 | 47 | 1022.0 |
| 20260905231004 | 24 | 192 | 20.9 | 27.4 | 0.00 | 0.00 | 0.00 | 46 | 1022.0 |
| 20260905230504 | 24 | 253 | 11.3 | 22.5 | 0.00 | 0.00 | 0.00 | 45 | 1021.9 |
| 20260905230004 | 25 | 174 | 6.4 | 11.3 | 0.00 | 0.00 | 0.00 | 45 | 1022.0 |
| 20260905225504 | 24 | 190 | 17.7 | 17.7 | 0.00 | 0.00 | 0.00 | 46 | 1022.2 |
| 20260905225004 | 24 | 150 | 11.3 | 22.5 | 0.00 | 0.00 | 0.00 | 46 | 1022.0 |
| 20260905224504 | 24 | 196 | 3.2 | 20.9 | 0.00 | 0.00 | 0.00 | 47 | 1022.3 |
| 20260905224004 | 24 | 195 | 6.4 | 19.3 | 0.00 | 0.00 | 0.00 | 46 | 1022.3 |
| 20260905223504 | 24 | 169 | 8.0 | 9.7 | 0.00 | 0.00 | 0.00 | 48 | 1022.2 |
| 20260905223004 | 23 | 57 | 3.2 | 20.9 | 0.00 | 0.00 | 0.00 | 50 | 1022.0 |
| 20260905222504 | 23 | 138 | 14.5 | 22.5 | 0.00 | 0.00 | 0.00 | 51 | 1022.3 |
| 20260905222004 | 24 | 130 | 9.7 | 27.4 | 0.00 | 0.00 | 0.00 | 51 | 1022.2 |
| 20260905221503 | 24 | 163 | 4.8 | 16.1 | 0.00 | 0.00 | 0.00 | 50 | 1022.2 |
| 20260905221003 | 23 | 206 | 8.0 | 20.9 | 0.00 | 0.00 | 0.00 | 51 | 1022.3 |
| 20260905220504 | 24 | 158 | 14.5 | 30.6 | 0.00 | 0.00 | 0.00 | 50 | 1022.4 |
| 20260905220003 | 24 | 174 | 17.7 | 24.1 | 0.00 | 0.00 | 0.00 | 48 | 1022.3 |
| 20260905215504 | 25 | 184 | 25.7 | 27.4 | 0.00 | 0.00 | 0.00 | 47 | 1022.3 |
| 20260905215003 | 25 | 142 | 12.9 | 24.1 | 0.00 | 0.00 | 0.00 | 45 | 1022.1 |
| 20260905213003 | 26 | 218 | 11.3 | 24.1 | 0.00 | 0.00 | 0.00 | 43 | 1022.1 |
| 20260905212503 | 26 | 183 | 14.5 | 29.0 | 0.00 | 0.00 | 0.00 | 43 | 1022.3 |
| 20260905212004 | 26 | 149 | 19.3 | 29.0 | 0.00 | 0.00 | 0.00 | 42 | 1022.3 |
| 20260905211503 | 26 | 169 | 12.9 | 25.7 | 0.00 | 0.00 | 0.00 | 42 | 1022.3 |
| 20260905211003 | 27 | 200 | 6.4 | 27.4 | 0.00 | 0.00 | 0.00 | 40 | 1022.3 |
| 20260905210503 | 27 | 163 | 4.8 | 19.3 | 0.00 | 0.00 | 0.00 | 41 | 1022.3 |
| 20260905210003 | 26 | 157 | 4.8 | 32.2 | 0.00 | 0.00 | 0.00 | 42 | 1022.3 |
| 20260905205503 | 26 | 141 | 11.3 | 24.1 | 0.00 | 0.00 | 0.00 | 42 | 1022.4 |
| 20260905205004 | 26 | 198 | 19.3 | 24.1 | 0.00 | 0.00 | 0.00 | 42 | 1022.3 |
| 20260905204503 | 25 | 247 | 8.0 | 22.5 | 0.00 | 0.00 | 0.00 | 43 | 1022.3 |
| 20260905204003 | 26 | 216 | 24.1 | 32.2 | 0.00 | 0.00 | 0.00 | 42 | 1022.5 |
| 20260905203503 | 26 | 197 | 6.4 | 19.3 | 0.00 | 0.00 | 0.00 | 41 | 1022.5 |
| 20260905203003 | 26 | 140 | 16.1 | 32.2 | 0.00 | 0.00 | 0.00 | 41 | 1022.5 |
| 20260905202503 | 26 | 119 | 8.0 | 22.5 | 0.00 | 0.00 | 0.00 | 39 | 1022.4 |
| 20260905202003 | 26 | 136 | 30.6 | 35.4 | 0.00 | 0.00 | 0.00 | 39 | 1022.4 |
| 20260905201504 | 26 | 143 | 8.0 | 25.7 | 0.00 | 0.00 | 0.00 | 40 | 1022.5 |
| 20260905201004 | 26 | 221 | 20.9 | 29.0 | 0.00 | 0.00 | 0.00 | 38 | 1022.6 |
| 20260905200504 | 27 | 207 | 24.1 | 37.0 | 0.00 | 0.00 | 0.00 | 39 | 1022.5 |
| 20260905200004 | 27 | 222 | 16.1 | 27.4 | 0.00 | 0.00 | 0.00 | 37 | 1022.5 |
| 20260905195504 | 26 | 140 | 11.3 | 14.5 | 0.00 | 0.00 | 0.00 | 39 | 1022.5 |
| 20260905193503 | 25 | 215 | 11.3 | 24.1 | 0.00 | 0.00 | 0.00 | 39 | 1023.0 |
| 20260905193003 | 26 | 245 | 19.3 | 32.2 | 0.00 | 0.00 | 0.00 | 38 | 1022.9 |
| 20260905192503 | 25 | 185 | 8.0 | 14.5 | 0.00 | 0.00 | 0.00 | 37 | 1022.7 |